This is the latest recevied weather packets stored in our database for station/object F4DVI. If no packets are shown the sender has not sent any weather packets the latest 10 day(s).
| Time | Temp. | Humidity | Pressure | Rain* | Wind** | Luminosity | Snow |
|---|---|---|---|---|---|---|---|
| 1777855416 | 14.44° C | 83% | 0 hPa | 3.81 mm | - | - | - |
| 1777855117 | 14.44° C | 83% | 0 hPa | 3.81 mm | - | - | - |
| 1777854816 | 14.44° C | 83% | 0 hPa | 3.81 mm | - | - | - |
| 1777854516 | 13.89° C | 83% | 0 hPa | 3.81 mm | - | - | - |
| 1777854216 | 14.44° C | 83% | 0 hPa | 3.56 mm | - | - | - |
| 1777853916 | 14.44° C | 83% | 0 hPa | 2.79 mm | - | - | - |
| 1777853616 | 14.44° C | 83% | 0 hPa | 0.76 mm | - | - | - |
| 1777853316 | 14.44° C | 83% | 0 hPa | 1.78 mm | - | - | - |
| 1777853017 | 13.89° C | 82% | 0 hPa | 1.78 mm | - | - | - |
| 1777852717 | 13.89° C | 82% | 0 hPa | 1.78 mm | - | - | - |
| 1777852417 | 13.89° C | 82% | 0 hPa | 1.78 mm | - | - | - |
| 1777852117 | 14.44° C | 82% | 0 hPa | 1.78 mm | - | - | - |
| 1777851817 | 14.44° C | 82% | 0 hPa | 1.78 mm | - | - | - |
| 1777851517 | 14.44° C | 82% | 0 hPa | 1.78 mm | - | - | - |
| 1777851217 | 13.89° C | 82% | 0 hPa | 1.78 mm | - | - | - |
| 1777850917 | 13.33° C | 82% | 0 hPa | 1.78 mm | - | - | - |
| 1777850617 | 14.44° C | 82% | 0 hPa | 1.78 mm | - | - | - |
| 1777850317 | 13.89° C | 82% | 0 hPa | 1.78 mm | - | - | - |
| 1777850017 | 14.44° C | 82% | 0 hPa | 1.02 mm | - | - | - |
| 1777849717 | 14.44° C | 82% | 0 hPa | 0 mm | - | - | - |
| 1777849417 | 14.44° C | 82% | 0 hPa | 0 mm | - | - | - |
| 1777849117 | 13.89° C | 82% | 0 hPa | 0 mm | - | - | - |
| 1777848817 | 13.33° C | 82% | 0 hPa | 0 mm | - | - | - |
| 1777848517 | 13.89° C | 81% | 0 hPa | 0 mm | - | - | - |
| 1777848217 | 13.89° C | 81% | 0 hPa | 0 mm | - | - | - |
* Rain latest hour (hover to see other rain measurements)
** Current wind speed in m/s (hover to see current wind gust speed)